Location: Newark
(48.8656°N, 2.3211°E)
Time: 00:22:11
(UTC+00:00)

Envisat - Pass Details

Date: 26 February 2019
Orbit: 764 x 766 km, 98.2° (Epoch: 21 March)

Event Time Altitude Azimuth Distance (km) Brightness Sun altitude
Rises 18:28:49 0° 169° (S) 3,221 6.1 -10.6°
Reaches altitude 10° 18:31:07 10° 171° (S) 2,299 5.4 -11.0°
Maximum altitude 18:36:11 75° 257° (WSW) 799 3.2 -11.8°
Drops below altitude 10° 18:41:18 10° 343° (NNW) 2,315 5.7 -12.7°
Sets 18:43:37 0° 345° (NNW) 3,246 6.5 -13.0°
